Portada
METAR-TAF:

METAR-TAF

Aeropuertos :

Valence, Francia

latitud: 44-54-58N, longitud: 4-58-06E, altitud: 160 m

Observación

El informe se hizo hace 2 horas y 26 minutos, a las 18:00 UTC
Viento 15 kt del norte-noroeste
Temperatura 4°C
Humedad 81%
Presión 1020 hPa
Visibilidad: 8000 m
Cielo cubierto a una altura de 1400 ft

METAR: LFLU 291800Z AUTO 34015KT 8000 OVC014 04/01 Q1020

Hora: 21:26 (20:26 UTC)


TAF: falta

Observaciones y pronósticos meteorológicos de más de 4000 aeropuertos (mensajes METAR y TAF).

Los puntos amarillos y rojos representan las estaciones disponibles.

Ponga el ratón en el punto deseado para ver el nombre de la estación.

Haga clic para ver las observaciones y los pronósticos meteorológicos.

Para cambiar el mapa : haga clic en los botones verdes con una cruz de color negro para hacer un zoom, en el botón verde con un guión para alejar o en las flechas verdes para mapas adyacentes.


METAR-TAF: